Home   Weather   Riyadh   Past weeks

Flag for Saudi Arabia Past Weather in Riyadh, Saudi Arabia — Yesterday and Last 2 Weeks

Now
75 °F

Sunny.


Feels Like: 76 °F
Forecast: 68 / 101 °F
Wind: No wind

Location: King Khaled International Airport

Current Time: Sep 27, 2016 at 6:38:54 AM

Latest Report: Sep 27, 2016 at 6:00 AM


Visibility: 10 mi

Pressure: 29.92 "Hg (27.96 "Hg at 590m altitude)

Humidity: 22%

Dew Point: 34 °F

Location of RiyadhLocation

Past Weather in Riyadh — Graph

°F

Riyadh Temperature Yesterday

Maximum temperature yesterday: 104 °F (at 2:00 PM)
Minimum temperature yesterday: 75 °F (at 6:00 AM)
Average temperature yesterday: 90 °F

High & Low Weather Summary for the Past Weeks

 TemperatureHumidityPressure
High108 °F (Sep 17, 1:00 PM)34% (Sep 20, 6:00 AM)29.98 "Hg (Sep 20, 6:00 AM)
Low70 °F (Sep 15, 6:00 AM)5% (Sep 18, 2:00 PM)29.77 "Hg (Sep 12, 2:00 PM)
Average91 °F14%29.87 "Hg
* Reported Sep 12 5:00 AM — Sep 27 5:00 AM, Riyadh, Weather by CustomWeather, © 2016

Note: Actual official high and low records may vary slightly from our data, if they occured in-between our weather recording intervals... More about our weather records

Advertising

Riyadh Weather History for the Previous 24 Hours

Scroll right to see more
 ConditionsComfort  
Time TempWeatherWind HumidityBarometerVisibility
5:00 AM
Tue, Sep 27
73 °FClear.No wind27%29.92 "Hg10 mi
4:00 AM79 °FClear.No wind20%29.89 "Hg10 mi
3:00 AM79 °FClear.No wind18%29.89 "Hg10 mi
2:00 AM81 °FClear.No wind17%29.92 "Hg10 mi
1:00 AM82 °FClear.3 mph16%29.92 "Hg10 mi
12:00 AM84 °FClear.3 mph15%29.92 "Hg10 mi
11:00 PM
Mon, Sep 26
88 °FClear.No wind13%29.92 "Hg10 mi
10:00 PM88 °FClear.7 mph15%29.92 "Hg10 mi
9:00 PM90 °FClear.7 mph15%29.92 "Hg10 mi
8:00 PM91 °FClear.6 mph14%29.92 "Hg10 mi
7:00 PM95 °FClear.5 mph12%29.89 "Hg10 mi
6:00 PM99 °FClear.10 mph11%29.89 "Hg4 mi
5:00 PM100 °FSunny.10 mph10%29.86 "Hg10 mi
4:00 PM102 °FSunny.5 mph8%29.86 "Hg10 mi
3:00 PM104 °FSunny.9 mph6%29.86 "Hg10 mi
2:00 PM104 °FSunny.3 mph7%29.86 "Hg10 mi
1:00 PM102 °FSunny.3 mph8%29.86 "Hg10 mi
12:00 PM100 °FSunny.6 mph9%29.89 "Hg10 mi
11:00 AM99 °FSunny.6 mph14%29.92 "Hg10 mi
10:00 AM95 °FSunny.5 mph18%29.92 "Hg10 mi
9:00 AM90 °FSunny.3 mph20%29.95 "Hg10 mi
8:00 AM84 °FSunny.3 mph25%29.95 "Hg10 mi
7:00 AM77 °FSunny.No wind32%29.92 "Hg10 mi
6:00 AM75 °FSunny.No wind34%29.92 "Hg10 mi
Weather by CustomWeather, © 2016

See weather overviewHow to use our weather pages